Wind_Speed
57 67 80 81 74 66 62 63 62 58 55 53 55 55 53 50 52 47 45 41 37 30 26 30 33 31 36 36 43 39 33 34 31 29 18 19 27 29 30 33 33 32 34 35
29 51 63 71 73 74 68 62 64 56 53 55 52 50 47 47 48 46 43 43 37 29 27 24 24 29 34 31 33 31 27 27 35 28 27 29 33 31 30 31 31 34 35 32
26 19 34 50 59 62 67 66 62 59 51 43 50 48 47 47 47 43 44 40 38 33 29 25 22 26 25 27 30 33 29 24 28 31 33 33 34 26 30 33 34 33 30 33
29 23 32 30 52 59 65 66 62 60 53 54 43 48 44 46 46 44 42 40 39 33 31 27 26 23 23 25 25 29 32 23 24 31 36 21 21 31 32 33 33 31 30 33
21 21 25 38 33 40 56 58 62 59 55 50 46 37 37 40 47 45 41 41 37 36 33 30 27 27 25 22 21 27 15 22 22 28 34 22 26 27 32 33 32 31 33 35
10 15 24 34 35 33 37 46 60 60 54 57 48 44 35 36 47 47 43 39 36 36 33 33 30 30 25 23 22 22 23 25 17 22 17 22 27 29 29 31 30 29 31 37
13 10 26 19 41 44 40 46 49 45 59 59 50 42 43 33 40 42 39 43 36 32 34 33 31 31 29 23 21 22 20 12 18 24 25 27 27 27 27 25 26 28 33 34
5 4 20 15 16 43 44 51 52 50 46 59 54 47 45 37 31 33 33 32 34 37 33 34 33 33 31 27 27 22 18 20 22 26 24 23 24 23 24 24 26 29 30 33
8 5 5 18 26 38 40 53 53 45 37 47 60 49 47 35 25 28 35 37 37 32 36 37 36 34 30 30 32 23 20 24 26 26 24 24 26 26 25 26 27 28 33 36
10 7 11 16 28 41 32 36 56 46 38 46 57 57 56 37 27 31 31 31 36 34 37 40 37 36 34 33 31 24 24 30 29 26 27 27 27 26 24 27 30 31 35 34
11 14 7 2 22 37 25 48 58 48 44 34 43 60 55 34 34 32 32 34 35 38 40 36 37 34 36 33 32 27 30 27 30 29 27 24 23 23 30 30 30 34 31 30
10 10 9 10 23 27 35 40 47 57 49 37 37 47 60 46 40 40 36 36 35 33 32 39 36 37 37 33 30 28 31 31 28 27 25 25 29 31 30 28 31 29 29 31
7 9 8 9 14 33 32 46 51 50 50 45 37 37 42 53 45 44 41 39 37 34 30 34 37 36 36 34 30 32 28 26 25 26 29 31 31 30 29 29 26 27 29 33
8 5 4 8 14 24 26 47 46 55 49 51 44 40 41 50 49 49 45 43 42 38 34 31 33 35 34 30 32 29 26 25 27 29 28 30 31 29 27 25 26 29 34 37
9 3 6 11 17 21 24 40 50 49 49 45 38 38 44 47 48 48 50 47 46 43 38 30 31 30 31 33 32 28 26 28 28 29 31 30 27 24 22 25 28 31 35 34
19 7 4 5 10 18 18 39 42 63 48 40 32 36 43 50 48 51 46 48 46 44 40 36 35 33 31 31 28 26 29 29 30 30 27 23 21 22 25 27 29 32 33 35
9 10 13 15 11 16 22 29 45 52 43 44 39 43 46 55 48 45 46 39 36 35 36 41 42 37 33 29 28 30 30 31 29 25 21 20 23 26 29 31 33 32 30 29
13 16 11 13 10 13 19 39 40 61 35 36 20 37 47 52 52 49 41 36 33 31 39 41 40 35 31 31 32 31 31 29 23 19 20 23 26 30 31 36 36 28 28 32
19 11 13 12 17 12 17 28 47 42 26 16 25 49 51 43 46 46 46 37 35 34 38 39 36 35 34 33 32 30 26 21 19 20 23 26 28 32 30 24 24 27 32 33
11 11 13 21 14 28 35 45 29 28 19 11 4 14 36 35 43 40 38 38 32 31 33 34 36 35 33 32 29 22 20 21 22 24 26 27 30 25 21 22 25 28 29 30
17 13 15 10 23 21 36 13 27 23 19 11 11 22 19 36 38 31 31 31 31 33 36 36 35 35 31 26 23 22 21 24 26 26 28 27 20 19 20 23 25 25 28 32
15 22 22 22 15 17 25 23 19 18 24 21 14 23 27 36 28 27 32 36 37 37 36 34 31 30 26 25 25 24 25 25 24 27 21 19 20 21 24 23 23 27 32 36
23 23 19 17 9 16 12 15 16 18 20 20 22 26 29 33 31 27 30 34 34 35 33 30 27 25 26 26 26 26 25 25 22 22 24 22 22 23 22 23 28 31 35 40
21 13 20 22 14 19 12 9 8 17 13 25 19 32 32 33 29 26 28 30 30 28 26 24 23 25 25 25 27 27 22 22 20 18 18 21 20 20 23 27 28 33 38 40
18 17 23 19 18 19 17 14 13 19 23 15 26 30 36 33 29 27 23 21 19 20 21 24 21 21 18 14 13 11 11 14 15 15 16 16 19 23 23 24 29 35 39 38
13 10 14 21 18 19 21 23 19 16 25 20 24 32 34 34 30 26 23 21 19 19 20 19 16 14 13 11 11 13 14 14 14 14 16 20 24 25 26 31 34 35 36 38
Wind_Direction
239 239 236 239 239 238 237 234 237 240 234 233 232 230 226 224 232 230 229 232 236 239 235 241 239 237 235 248 259 267 270 275 220 199 265 248 254 255 259 267 272 276 282 287
233 235 233 233 235 235 234 231 231 230 234 231 232 234 235 229 231 234 230 230 233 226 230 237 238 231 237 249 257 257 252 248 257 257 258 253 254 265 266 269 275 282 282 287
227 235 214 219 221 226 226 226 225 227 223 227 230 228 227 228 227 230 230 229 230 227 231 234 237 234 238 243 247 245 246 246 250 250 247 246 253 255 261 267 269 274 284 290
207 205 207 210 214 216 222 222 220 222 220 215 212 228 224 226 224 225 226 227 229 226 227 225 227 235 238 237 239 251 241 238 231 240 251 226 243 246 253 263 269 278 283 283
197 205 212 216 213 215 218 221 219 218 212 212 201 220 227 228 225 220 226 228 227 224 227 225 220 228 234 235 239 243 259 255 238 236 240 245 248 249 252 261 268 276 277 282
203 186 200 199 205 193 206 212 212 209 208 200 200 201 208 206 226 221 219 223 225 224 223 224 218 224 231 229 232 237 237 240 246 243 244 239 246 251 259 264 268 271 275 276
292 249 211 200 202 198 191 186 205 199 198 203 193 196 206 215 226 229 225 220 219 216 218 220 223 224 225 229 237 237 241 233 228 229 234 239 246 254 260 265 270 270 270 283
134 219 223 229 213 194 199 185 191 195 204 197 192 195 204 214 228 232 221 221 213 216 217 216 219 222 223 228 238 231 224 224 230 227 237 247 256 259 266 270 269 275 284 287
278 181 205 200 199 213 196 196 184 198 199 204 196 199 210 185 184 193 211 213 219 215 215 219 218 219 223 225 234 229 224 231 239 242 248 256 257 264 262 272 280 284 288 292
291 277 322 211 196 197 197 197 190 189 191 198 200 202 205 183 188 210 218 216 213 208 213 217 220 223 223 222 228 216 225 228 239 252 254 255 260 266 274 275 280 283 287 291
283 289 304 266 198 209 212 190 194 188 186 185 192 202 207 188 184 195 209 216 206 208 214 223 220 228 229 222 228 215 229 240 245 253 260 264 265 264 264 272 279 282 291 297
280 290 264 156 182 198 206 188 196 188 188 177 189 199 203 188 186 188 197 209 223 222 225 221 225 221 226 226 224 232 235 238 245 251 254 255 255 260 264 271 279 288 297 302
296 276 207 226 213 200 206 205 186 191 186 185 188 194 194 189 188 188 198 213 225 226 217 220 224 227 231 234 233 235 238 238 244 246 250 255 261 265 268 276 285 295 298 301
321 297 259 219 199 208 192 195 195 186 191 181 180 186 188 189 195 198 203 215 226 229 227 219 223 230 232 234 235 237 237 241 243 249 254 257 259 267 275 286 292 294 300 301
13 279 221 210 196 186 200 179 199 195 193 181 175 180 188 183 188 198 199 209 219 226 225 221 218 217 219 223 228 231 236 240 245 248 250 256 265 272 283 285 290 299 303 299
19 34 137 292 189 203 182 187 191 195 207 190 167 171 182 181 191 202 201 208 217 226 228 219 215 216 216 219 226 229 235 239 243 248 253 261 268 275 278 282 294 298 305 304
44 73 111 117 104 150 176 181 184 189 162 170 180 186 168 184 192 199 202 193 207 214 220 215 215 217 217 219 221 227 232 238 243 249 257 266 272 274 278 290 289 299 307 305
40 73 106 122 115 120 157 182 184 190 180 179 163 175 177 181 192 201 200 200 205 212 214 213 216 216 214 215 219 224 230 237 244 254 264 269 273 278 285 291 291 298 299 305
26 109 105 118 135 119 153 170 183 182 171 173 176 186 186 188 196 199 204 207 219 214 211 210 203 207 206 208 213 220 228 238 249 259 264 273 281 288 290 296 295 288 298 304
73 75 101 138 152 150 162 171 186 203 221 180 184 162 167 185 197 200 202 209 204 194 191 196 196 197 199 205 214 222 235 244 249 258 271 277 285 290 287 290 294 296 300 301
59 100 133 127 150 141 168 142 185 206 213 240 176 171 176 179 180 193 194 182 180 181 181 186 189 196 202 208 218 227 238 246 255 267 277 283 281 279 292 297 298 299 302 307
54 118 150 138 151 150 148 129 157 182 195 197 175 195 186 185 182 182 180 174 178 183 188 191 197 202 207 219 221 237 246 257 270 275 274 270 275 283 296 294 295 302 309 312
82 123 137 143 148 116 138 163 182 168 161 179 165 168 166 167 165 174 183 182 185 188 192 197 202 211 219 226 237 246 255 271 268 268 267 265 282 286 286 293 301 307 311 311
66 94 118 100 137 134 132 110 137 173 181 193 181 171 168 169 164 182 187 190 197 203 209 214 218 226 235 240 248 262 258 257 261 261 266 273 277 282 291 301 312 314 313 311
125 85 84 118 102 109 119 97 99 159 178 161 174 176 170 169 184 180 186 191 201 211 221 217 235 238 236 223 226 234 249 254 258 261 265 270 279 290 299 309 314 313 314 315
111 70 99 107 107 124 121 104 90 124 147 153 174 183 173 184 181 184 193 198 207 222 230 224 204 186 200 217 238 247 248 250 254 258 269 281 289 296 301 306 310 312 315 312
Height
5580 5579 5592 5619 5633 5652 5662 5668 5677 5690 5703 5706 5717 5725 5734 5743 5747 5757 5765 5772 5779 5788 5794 5798 5804 5810 5804 5813 5818 5823 5821 5823 5825 5803 5827 5832 5842 5843 5847 5849 5849 5851 5852 5850
5561 5562 5583 5605 5613 5628 5638 5651 5660 5677 5686 5697 5708 5714 5726 5733 5742 5749 5758 5766 5773 5782 5787 5793 5799 5799 5800 5809 5813 5817 5818 5821 5816 5820 5826 5832 5835 5837 5841 5844 5843 5845 5845 5843
5552 5565 5573 5581 5592 5606 5618 5633 5651 5663 5677 5685 5696 5701 5710 5723 5733 5740 5749 5759 5767 5776 5783 5789 5792 5792 5797 5799 5801 5805 5810 5815 5813 5816 5822 5829 5830 5833 5838 5838 5838 5840 5840 5837
5550 5557 5565 5572 5579 5593 5602 5623 5641 5652 5663 5671 5684 5688 5699 5712 5724 5731 5743 5752 5760 5768 5775 5783 5785 5788 5790 5793 5798 5801 5805 5810 5809 5814 5815 5821 5826 5829 5831 5832 5833 5834 5833 5830
5544 5555 5557 5564 5574 5584 5597 5617 5631 5644 5651 5662 5670 5682 5691 5702 5709 5727 5737 5743 5753 5761 5767 5775 5780 5781 5785 5790 5796 5799 5803 5804 5806 5808 5811 5817 5820 5822 5823 5826 5827 5827 5824 5822
5551 5552 5552 5560 5565 5574 5590 5604 5619 5630 5643 5644 5661 5671 5680 5691 5708 5720 5728 5736 5744 5753 5761 5767 5774 5776 5780 5784 5791 5795 5799 5804 5801 5803 5808 5813 5815 5816 5816 5819 5821 5820 5819 5815
5550 5551 5552 5555 5561 5571 5579 5591 5607 5616 5624 5635 5657 5662 5673 5689 5699 5710 5721 5729 5737 5745 5753 5759 5767 5772 5776 5780 5784 5789 5794 5794 5797 5803 5805 5809 5809 5811 5811 5815 5815 5815 5811 5810
5549 5550 5548 5555 5556 5567 5575 5585 5595 5604 5615 5634 5650 5650 5673 5686 5695 5702 5711 5720 5727 5738 5746 5751 5760 5765 5770 5777 5779 5782 5786 5792 5794 5797 5801 5802 5802 5805 5806 5808 5809 5806 5803 5801
5547 5547 5552 5554 5559 5562 5572 5575 5591 5606 5618 5632 5641 5661 5668 5679 5688 5692 5701 5712 5723 5732 5739 5743 5752 5759 5766 5770 5772 5779 5784 5786 5789 5791 5794 5795 5797 5798 5801 5800 5800 5797 5795 5794
5550 5551 5551 5553 5557 5560 5568 5582 5589 5596 5611 5621 5636 5652 5660 5672 5679 5687 5697 5709 5716 5724 5731 5737 5745 5752 5760 5765 5769 5775 5778 5779 5783 5786 5787 5789 5791 5792 5792 5791 5790 5789 5789 5787
5549 5550 5552 5553 5555 5560 5564 5571 5581 5596 5606 5617 5632 5644 5661 5671 5676 5682 5691 5700 5708 5715 5724 5732 5740 5746 5752 5758 5765 5769 5771 5775 5777 5779 5782 5785 5786 5787 5785 5784 5782 5781 5780 5778
5547 5548 5550 5552 5554 5557 5563 5569 5580 5584 5601 5615 5626 5639 5649 5662 5670 5678 5686 5693 5703 5713 5721 5727 5733 5740 5744 5750 5758 5764 5767 5770 5773 5776 5777 5779 5778 5777 5777 5777 5777 5775 5773 5771
5547 5545 5548 5550 5551 5555 5558 5568 5577 5588 5599 5611 5623 5632 5642 5657 5666 5675 5682 5689 5698 5707 5716 5723 5728 5734 5739 5746 5752 5755 5760 5764 5767 5768 5768 5769 5771 5772 5773 5773 5771 5770 5768 5765
5545 5544 5545 5548 5550 5551 5555 5564 5574 5584 5591 5607 5617 5626 5636 5650 5661 5670 5677 5685 5692 5701 5710 5717 5724 5730 5736 5742 5745 5749 5753 5757 5759 5761 5763 5765 5766 5767 5767 5766 5765 5764 5761 5758
5546 5545 5545 5547 5550 5553 5554 5564 5573 5580 5588 5600 5613 5624 5631 5644 5656 5664 5674 5681 5687 5695 5705 5713 5720 5725 5731 5736 5740 5746 5750 5751 5754 5756 5758 5760 5761 5761 5760 5760 5759 5757 5754 5752
5548 5546 5546 5545 5546 5550 5555 5566 5570 5577 5585 5595 5608 5619 5627 5640 5648 5657 5668 5676 5684 5691 5698 5707 5714 5721 5727 5732 5737 5742 5744 5747 5749 5752 5753 5754 5755 5755 5754 5754 5752 5750 5748 5745
5551 5550 5549 5549 5550 5553 5558 5564 5574 5579 5591 5602 5607 5618 5620 5632 5643 5653 5663 5673 5680 5686 5692 5699 5708 5716 5722 5728 5733 5736 5739 5742 5744 5746 5748 5748 5749 5748 5748 5747 5746 5744 5741 5738
5552 5552 5553 5554 5554 5553 5558 5566 5573 5581 5592 5601 5601 5613 5624 5622 5637 5648 5659 5668 5675 5681 5687 5695 5704 5712 5718 5723 5727 5731 5734 5737 5740 5742 5743 5743 5743 5742 5741 5740 5738 5737 5735 5732
5553 5553 5556 5560 5559 5562 5563 5568 5577 5586 5595 5599 5602 5605 5620 5629 5638 5647 5655 5663 5671 5677 5685 5694 5701 5709 5713 5719 5723 5727 5730 5733 5735 5737 5737 5737 5736 5736 5735 5733 5732 5730 5728 5725
5559 5558 5561 5562 5565 5570 5571 5579 5583 5589 5595 5600 5605 5611 5620 5630 5637 5645 5654 5661 5669 5676 5684 5693 5699 5706 5711 5716 5720 5724 5726 5728 5730 5731 5731 5731 5731 5730 5728 5727 5726 5724 5721 5718
5560 5563 5565 5567 5570 5575 5585 5584 5587 5596 5604 5603 5608 5610 5623 5628 5640 5649 5656 5662 5669 5676 5683 5690 5696 5702 5708 5713 5716 5719 5721 5723 5724 5725 5725 5725 5725 5724 5723 5722 5720 5717 5714 5711
5564 5563 5565 5571 5566 5577 5585 5589 5597 5599 5603 5610 5612 5618 5623 5631 5640 5648 5655 5660 5669 5677 5684 5690 5696 5700 5704 5708 5712 5714 5716 5718 5718 5719 5720 5721 5720 5719 5718 5716 5714 5711 5707 5703
5571 5572 5575 5578 5579 5582 5587 5593 5597 5602 5605 5610 5615 5621 5627 5634 5641 5649 5657 5663 5670 5676 5683 5688 5693 5697 5701 5704 5707 5710 5712 5712 5713 5714 5715 5715 5715 5714 5712 5710 5708 5704 5699 5695
5579 5579 5581 5580 5583 5587 5591 5594 5597 5602 5608 5611 5616 5623 5629 5638 5644 5650 5658 5665 5671 5677 5682 5687 5691 5694 5698 5701 5705 5706 5706 5708 5709 5710 5710 5710 5709 5708 5707 5704 5700 5696 5691 5687
5586 5585 5588 5590 5590 5592 5595 5599 5600 5601 5608 5612 5620 5626 5634 5640 5646 5653 5660 5666 5672 5677 5681 5685 5690 5693 5696 5699 5701 5702 5703 5705 5706 5706 5705 5705 5704 5703 5699 5696 5692 5688 5684 5678
5591 5591 5594 5595 5596 5600 5601 5603 5603 5605 5611 5618 5625 5631 5636 5642 5649 5654 5660 5666 5672 5677 5681 5685 5688 5692 5694 5697 5698 5700 5701 5702 5702 5702 5701 5700 5698 5695 5691 5688 5684 5680 5674 5670